Date,TemperatureHighF,TemperatureAvgF,TemperatureLowF,DewpointHighF,DewpointAvgF,DewpointLowF,HumidityHigh,HumidityAvg,HumidityLow,PressureMaxIn,PressureMinIn,WindSpeedMaxMPH,WindSpeedAvgMPH,GustSpeedMaxMPH,PrecipitationSumIn
2014-1-1,6.1,1.2,-1.3,-8.2,-12.7,-15.0,51,51,51,29.03,28.85,16,7,19,0.00
2014-1-2,9.1,-4.6,-17.1,-5.5,-18.1,-29.8,51,51,51,29.12,29.00,7,3,9,0.00
2014-1-3,29.5,15.1,-12.1,14.6,-0.2,-25.1,54,50,44,29.03,28.23,42,18,42,0.00
2014-1-4,36.3,15.9,3.0,23.2,-0.8,-14.9,64,47,41,28.85,28.23,23,11,28,0.00
2014-1-5,6.6,-3.6,-15.2,-11.6,-20.9,-31.5,42,42,42,29.06,28.85,28,13,32,0.00
2014-1-6,-2.2,-11.2,-17.7,-19.6,-27.9,-33.8,42,42,42,29.03,28.88,24,14,28,0.00
2014-1-7,25.0,6.3,-11.4,-0.5,-13.8,-28.0,42,38,32,28.91,28.73,9,5,10,0.00
2014-1-8,17.4,7.6,-0.2,-4.6,-13.7,-20.8,39,36,36,29.09,28.88,10,4,11,0.00
2014-1-9,32.7,15.4,0.5,14.1,-2.8,-19.6,76,45,35,29.03,28.58,23,11,23,0.00
2014-1-10,35.1,27.4,20.8,30.2,20.9,14.4,85,76,67,28.61,28.23,11,4,15,0.00
2014-1-11,32.5,23.8,14.2,26.5,14.2,4.2,83,67,50,28.47,28.23,18,7,20,0.00
2014-1-12,43.5,36.1,21.7,24.6,20.3,15.6,78,54,40,28.38,28.14,26,10,30,0.00
2014-1-13,45.9,35.5,28.4,20.9,15.4,9.7,63,44,28,28.47,28.26,17,10,21,0.00
2014-1-14,41.2,26.2,13.8,24.6,7.9,-3.1,54,45,35,28.82,28.23,37,17,42,0.00
2014-1-15,32.4,20.8,7.0,11.9,-0.3,-9.9,51,39,31,28.82,28.26,25,10,26,0.00
2014-1-16,36.9,24.1,6.4,22.5,4.4,-11.3,62,42,34,28.61,28.26,33,17,37,0.00
2014-1-17,27.9,12.2,1.8,2.7,-7.6,-15.6,43,40,32,28.73,28.61,20,11,26,0.00
2014-1-18,35.4,23.2,11.1,29.8,10.0,-1.5,81,57,40,28.70,28.20,26,12,29,0.00
2014-1-19,58.8,35.5,16.5,23.1,15.1,6.8,72,47,24,28.58,28.26,37,14,37,0.00
2014-1-20,44.6,24.9,-3.3,26.1,11.1,-17.3,76,56,38,29.06,28.47,23,10,25,0.00
2014-1-21,12.4,1.0,-12.5,-2.7,-13.3,-25.8,50,50,50,29.12,28.67,18,9,20,0.00
2014-1-22,18.3,9.1,-7.1,3.0,-7.5,-24.5,55,46,39,29.14,28.64,21,12,28,0.00
2014-1-23,11.3,-0.8,-12.1,-7.8,-18.9,-29.1,41,41,41,29.38,29.00,18,9,20,0.00
2014-1-24,41.0,25.0,0.7,24.7,4.5,-17.5,60,41,30,29.00,28.29,25,15,32,0.00
2014-1-25,35.1,22.1,10.4,24.2,-2.5,-12.4,66,34,22,28.67,28.11,24,12,29,0.00
2014-1-26,42.6,36.9,27.7,20.1,14.9,3.0,45,40,34,28.26,28.08,39,18,45,0.00
2014-2-4,12.6,5.2,1.6,-4.3,-11.1,-14.4,46,46,46,29.03,28.94,14,7,19,0.00
2014-2-5,9.3,1.0,-10.5,-7.3,-14.9,-25.5,46,46,46,29.20,29.03,20,10,23,0.00
2014-2-6,12.0,-0.1,-11.2,-4.8,-16.0,-26.2,46,46,46,29.20,28.97,18,9,20,0.00
2014-2-7,23.5,6.0,-11.9,-1.3,-14.3,-26.9,46,38,33,29.00,28.79,17,7,19,0.00
2014-2-8,31.1,14.2,6.1,7.6,-5.9,-12.9,54,40,33,28.85,28.67,14,6,14,0.00
2014-2-9,10.0,1.3,-7.2,-6.6,-14.6,-22.5,46,46,46,29.06,28.82,13,7,17,0.00
2014-2-10,9.7,-4.8,-17.9,-6.9,-20.3,-32.4,46,46,46,29.14,29.03,9,4,10,0.00
2014-2-11,22.5,5.8,-17.9,-1.6,-12.0,-32.4,47,43,34,29.12,28.73,25,13,29,0.00
2014-2-12,28.6,20.2,15.1,11.1,4.2,-2.4,65,50,42,28.76,28.50,23,7,26,0.00
2014-2-13,44.2,29.3,14.2,20.9,8.8,-2.9,64,42,33,28.50,28.29,31,16,38,0.00
2014-2-14,17.4,9.2,-2.2,-2.2,-8.8,-20.1,46,43,39,28.73,28.41,14,7,17,0.00
2014-2-15,43.2,20.8,-2.0,21.9,4.4,-19.9,66,49,40,28.70,28.41,25,12,28,0.04
2014-2-16,28.8,20.4,14.5,10.6,6.8,3.3,68,56,41,28.85,28.55,24,11,28,0.00
2014-2-17,44.4,31.1,21.4,26.1,16.4,8.9,77,56,38,28.61,28.44,31,13,34,0.00
2014-2-18,59.4,40.0,25.0,25.5,19.3,12.1,69,46,26,28.55,28.26,20,9,22,0.00
2014-2-19,59.9,40.0,23.9,29.8,21.7,16.2,83,52,24,28.58,28.32,24,9,26,0.00
2014-2-20,35.8,32.3,19.9,31.2,24.6,6.4,91,74,52,28.32,28.08,39,13,42,0.25
2014-2-21,35.2,22.2,10.9,13.2,4.6,-2.5,61,47,33,28.55,28.26,37,14,37,0.00
2014-2-22,32.0,20.8,11.3,7.8,1.7,-4.1,69,44,31,28.85,28.55,12,4,13,0.00
2014-2-23,28.6,15.1,2.8,3.8,-3.4,-12.0,50,44,33,29.00,28.82,18,6,20,0.00
2014-2-24,34.5,15.6,7.5,6.3,-2.3,-7.6,55,45,30,29.03,28.91,8,4,9,0.00
2014-2-25,14.4,3.3,-9.9,0.5,-12.3,-22.4,55,48,37,29.09,28.97,21,10,24,0.00
2014-2-26,24.1,7.2,-12.6,3.7,-12.7,-31.5,44,39,36,29.06,28.47,27,13,32,0.00
2014-2-27,20.1,0.9,-9.6,-7.5,-21.6,-34.0,44,34,23,28.85,28.64,16,6,17,0.00
2014-2-28,34.0,14.3,-5.1,7.6,-8.7,-32.6,62,36,24,28.79,28.47,23,10,27,0.00
2014-3-1,11.5,0.8,-4.5,0.0,-13.2,-18.4,50,47,48,29.14,28.79,18,8,20,0.00
2014-3-2,5.0,-5.3,-12.5,-9.6,-19.1,-25.8,50,50,50,29.23,29.12,13,6,14,0.00
2014-3-3,15.4,3.6,-14.1,-1.7,-15.0,-27.3,50,42,31,29.17,28.82,19,9,21,0.00
2014-3-4,34.0,16.7,1.2,5.8,-5.5,-20.6,57,37,28,28.85,28.70,15,8,18,0.00
2014-3-5,31.8,20.4,9.5,8.0,5.2,-1.6,62,52,36,29.00,28.82,14,9,15,0.00
2014-3-6,36.1,25.8,6.8,22.3,13.4,-4.1,74,60,43,28.97,28.50,29,15,31,0.00
2014-3-7,43.3,29.7,20.8,27.7,16.2,7.2,79,57,41,28.82,28.44,21,8,21,0.00
2014-3-8,35.4,22.9,12.6,10.5,5.3,-1.1,57,47,33,29.00,28.82,10,6,13,0.00
2014-3-9,59.5,37.9,16.3,32.0,19.8,6.7,70,49,35,28.88,28.44,20,9,22,0.00
2014-3-10,69.8,50.5,34.9,38.7,28.9,20.6,81,46,26,28.47,28.38,14,6,14,0.00
2014-3-11,41.0,37.3,31.6,33.6,26.0,17.3,78,64,54,28.70,28.32,28,10,31,0.00
2014-3-12,43.7,30.5,25.7,19.8,12.3,7.2,68,47,35,28.82,28.70,18,7,22,0.00
2014-3-13,66.4,44.2,27.9,29.2,23.0,18.6,77,47,23,28.73,28.32,19,10,23,0.00
2014-3-14,55.6,42.3,31.8,27.3,21.0,15.8,65,43,28,28.64,28.29,27,11,29,0.00
2014-3-15,42.4,31.8,26.8,26.7,16.7,7.3,80,55,34,28.94,28.61,24,11,26,0.00
2014-3-16,42.3,28.8,18.9,11.5,6.4,2.0,53,39,26,29.06,28.70,15,7,19,0.00
2014-3-17,55.6,34.8,23.9,22.7,12.9,5.8,50,41,27,28.70,28.20,30,18,33,0.00
2014-3-18,57.4,39.2,28.9,27.8,21.3,15.5,79,51,29,28.41,28.17,20,8,25,0.00
2014-3-19,47.8,35.5,27.7,26.1,18.9,15.4,81,52,31,28.70,28.41,22,10,23,0.04
2014-3-20,61.3,41.5,22.8,30.2,21.0,14.2,76,48,22,28.70,28.55,13,6,15,0.00
2014-3-21,59.4,39.9,25.3,27.0,18.9,6.6,60,44,26,28.85,28.44,28,13,30,0.00
2014-3-22,35.4,23.5,15.1,6.8,0.3,-3.4,45,36,27,29.14,28.85,19,8,22,0.00
2014-3-23,43.5,24.6,7.5,6.4,-0.3,-8.5,50,35,20,29.17,28.97,12,4,15,0.00
2014-3-24,47.3,30.8,23.4,14.6,8.8,2.5,53,40,24,28.97,28.82,20,8,24,0.00
2014-3-25,37.2,24.2,12.4,7.6,-0.8,-11.9,51,35,21,29.00,28.82,20,8,33,0.00
2014-3-26,61.3,39.1,12.2,27.6,10.6,-10.4,52,32,19,28.82,28.29,42,21,48,0.00
2014-3-27,45.1,39.6,32.5,42.7,34.2,23.2,93,81,52,28.44,28.05,32,12,38,0.21
2014-3-28,36.1,32.7,29.8,23.3,18.3,14.9,68,55,43,28.91,28.44,13,5,15,0.00
2014-3-29,56.8,39.9,20.7,23.2,19.0,10.4,72,46,26,28.94,28.73,19,7,22,0.00
2014-3-30,74.5,51.4,34.2,30.2,23.5,18.5,57,37,16,28.73,28.38,27,16,30,0.00
2014-3-31,80.1,49.7,21.4,38.0,22.9,1.5,69,37,12,28.41,28.08,40,22,40,0.04
2014-4-1,48.2,32.4,18.1,14.9,7.0,-0.1,51,35,24,28.76,28.41,36,13,44,0.00
2014-4-2,53.2,37.6,25.7,22.7,18.1,12.7,77,49,26,28.79,28.58,24,11,24,0.00
2014-4-3,41.7,36.5,31.5,34.8,31.0,20.9,89,81,44,28.58,28.35,18,9,24,0.16
2014-4-4,42.1,34.3,27.9,26.3,20.7,16.4,84,59,40,28.79,28.35,25,13,30,0.00
2014-4-5,56.7,40.2,23.5,27.0,19.7,14.9,74,47,25,28.82,28.64,24,9,26,0.00
2014-4-6,61.3,46.5,34.9,34.3,25.8,17.2,64,45,28,28.64,28.52,18,9,18,0.00
2014-4-7,66.4,50.0,37.0,38.9,27.6,20.5,77,45,23,28.55,28.44,16,5,24,0.00
2014-4-8,57.6,44.8,28.6,28.0,19.8,5.5,66,40,19,28.73,28.55,19,8,24,0.00
2014-4-9,79.0,50.0,27.1,23.0,16.3,7.2,56,31,12,28.73,28.32,33,10,33,0.00
2014-4-10,69.4,56.7,40.5,26.7,17.3,3.4,44,23,13,28.67,28.29,25,8,28,0.00
2014-4-11,78.4,54.8,34.5,26.7,14.7,1.4,34,22,12,28.67,28.52,25,8,27,0.00
2014-4-12,82.4,65.8,52.2,46.6,32.4,11.8,68,31,17,28.52,28.26,24,11,26,0.09
2014-4-13,51.6,40.4,31.3,42.6,34.0,24.9,90,78,66,28.55,28.35,24,9,24,0.78
2014-4-14,41.7,31.8,25.7,24.8,10.4,4.5,77,42,29,28.82,28.55,24,11,24,0.09
2014-4-15,45.3,33.2,18.3,17.2,10.8,3.5,56,40,29,28.88,28.58,18,6,21,0.00
2014-4-16,61.7,43.4,32.4,32.1,22.1,14.9,71,45,24,28.67,28.38,37,17,38,0.00
2014-4-17,57.0,39.5,28.2,23.7,18.2,11.3,70,45,23,28.97,28.67,20,8,24,0.00
2014-4-18,66.0,48.2,25.9,25.4,20.3,15.5,79,38,18,29.00,28.76,24,11,27,0.00
2014-4-19,81.9,62.9,45.5,33.6,26.2,19.5,43,27,14,28.82,28.67,34,17,38,0.00
2014-4-20,82.6,67.3,54.3,47.2,36.9,27.4,72,34,22,28.73,28.55,15,7,16,0.72
2014-4-21,73.8,61.0,45.9,56.0,36.9,19.4,88,47,18,28.79,28.61,14,7,14,0.79
2014-4-22,69.1,54.4,35.1,28.7,23.1,17.9,53,31,20,28.85,28.67,9,4,10,0.00
2014-4-23,54.1,48.6,45.1,36.5,25.4,17.7,71,42,28,28.73,28.44,34,18,42,0.12
2014-4-24,59.2,49.6,40.6,41.3,33.7,27.7,76,56,36,28.50,28.32,18,7,24,0.38
2014-4-25,41.9,41.1,40.5,36.5,32.5,30.0,81,71,66,28.50,28.47,5,2,6,0.00
2014-4-27,57.2,53.0,44.8,50.2,42.6,29.2,88,68,49,28.29,28.02,35,19,37,0.37
2014-4-28,56.7,50.4,45.5,52.5,46.4,40.9,94,87,65,28.17,28.05,27,18,27,0.04
2014-4-29,45.9,41.6,36.1,41.5,34.7,25.2,92,77,58,28.47,28.14,16,8,16,0.13
2014-4-30,43.5,40.4,35.8,33.9,30.6,25.7,77,68,60,28.55,28.47,15,9,15,0.20
2014-5-1,46.8,42.4,39.2,35.7,31.9,27.7,78,67,50,28.61,28.47,15,12,15,0.08
2014-5-2,68.0,54.0,35.1,33.5,26.6,18.8,77,39,20,28.61,28.38,27,10,30,0.00
2014-5-3,71.2,52.5,37.9,35.4,25.6,20.0,57,37,19,28.64,28.50,25,10,28,0.00
2014-5-4,62.4,50.7,40.3,30.3,25.2,21.2,59,38,25,28.76,28.55,23,10,25,0.08
2014-5-5,72.3,58.2,41.9,27.8,24.8,20.8,53,30,16,28.61,28.52,20,10,23,0.00
2014-5-6,74.8,61.2,46.0,32.3,26.7,21.3,39,28,21,28.58,28.35,29,15,32,0.00
2014-5-7,93.6,74.5,53.6,51.1,36.7,23.3,55,27,17,28.35,28.23,45,14,50,0.13
2014-5-8,78.4,64.3,59.2,54.4,47.5,32.4,76,57,21,28.41,28.32,40,8,40,0.66
2014-5-9,69.3,57.1,45.9,36.2,27.1,17.1,63,35,17,28.52,28.38,31,13,31,0.00
2014-5-10,79.0,58.1,43.9,46.0,34.7,21.2,61,43,21,28.55,28.38,29,8,32,0.04
2014-5-11,72.0,58.9,46.6,57.8,47.5,36.2,88,67,42,28.58,28.38,28,9,42,0.66
2014-5-12,66.7,57.4,48.2,60.8,48.9,36.6,92,74,61,28.67,28.38,20,7,20,0.05
2014-5-13,59.5,51.4,42.6,36.6,28.0,20.7,64,43,26,28.94,28.64,20,9,20,0.00
2014-5-14,71.2,52.0,35.1,28.8,22.2,14.5,65,34,17,28.94,28.76,11,4,13,0.00
2014-5-15,55.4,44.9,34.3,23.7,17.4,12.7,54,34,27,28.85,28.79,14,7,15,0.00
2014-5-16,62.4,47.3,30.7,23.1,17.3,10.1,61,32,19,28.82,28.73,12,3,14,0.00
2014-5-17,72.3,54.7,34.0,23.6,16.9,11.3,44,25,14,28.82,28.73,18,5,20,0.00
2014-5-18,74.7,61.1,41.5,27.8,20.8,15.0,39,23,13,28.85,28.64,31,12,31,0.00
2014-5-19,70.7,63.6,55.2,50.0,39.8,25.7,65,43,26,28.67,28.41,30,15,34,0.08
2014-5-20,91.8,73.3,55.9,56.7,41.2,27.2,78,38,12,28.58,28.44,16,4,18,0.00
2014-5-21,84.2,69.4,56.1,36.0,30.7,21.7,45,26,13,28.82,28.58,12,3,12,0.00
2014-5-22,84.6,66.2,50.5,34.4,27.6,14.8,46,26,11,28.91,28.79,15,3,15,0.00
2014-5-23,87.3,69.9,48.7,32.3,25.0,17.8,38,20,11,28.91,28.76,13,6,15,0.00
2014-5-24,84.7,70.3,54.5,38.0,28.6,22.0,38,23,11,28.85,28.70,20,8,23,0.00
2014-5-25,81.7,70.7,62.8,54.3,46.4,37.6,63,43,30,28.73,28.58,18,9,21,0.00
2014-5-26,87.6,73.5,64.8,60.0,50.2,41.3,78,48,21,28.67,28.55,19,7,21,0.00
2014-5-27,89.8,74.6,63.5,58.4,48.2,38.9,74,43,20,28.67,28.58,13,5,15,0.05
2014-5-28,87.3,72.5,62.2,58.4,46.5,28.4,77,45,21,28.73,28.64,17,6,19,0.00
2014-5-29,89.6,75.0,60.4,47.0,39.4,26.5,45,29,19,28.79,28.67,15,7,21,0.00
2014-5-30,91.8,79.2,65.7,55.6,47.3,40.5,68,36,19,28.79,28.70,20,8,23,0.00
2014-5-31,90.5,78.9,68.7,57.8,49.2,40.8,66,39,19,28.79,28.61,25,10,29,0.00
2014-6-1,93.2,76.2,64.8,61.5,50.0,38.4,88,44,18,28.61,28.44,26,11,26,1.12
2014-6-2,81.9,71.4,61.5,58.3,48.0,34.9,82,49,21,28.64,28.47,26,12,29,0.00
2014-6-3,81.9,66.9,53.2,57.2,44.4,34.9,80,48,21,28.73,28.38,30,4,35,0.58
2014-6-4,81.3,69.7,61.5,60.4,51.6,44.5,86,57,30,28.61,28.32,20,6,22,0.04
2014-6-5,76.1,66.6,57.7,55.7,49.1,44.8,84,56,34,28.64,28.55,18,7,21,0.00
2014-6-6,74.5,73.3,72.1,47.7,42.9,35.5,41,34,25,28.61,28.58,10,6,11,0.00
2014-6-7,81.3,68.3,56.8,57.9,45.0,37.7,71,45,25,28.73,28.58,20,5,20,0.00
2014-6-8,81.0,67.0,52.0,45.2,35.0,24.9,72,38,14,28.82,28.67,21,6,26,0.00
2014-6-9,75.4,66.3,56.3,51.7,41.7,35.9,72,42,29,28.70,28.61,14,6,15,0.00
2014-6-10,84.4,68.3,55.2,46.5,39.3,34.6,58,36,22,28.61,28.55,16,5,17,0.00
2014-6-11,87.6,73.3,53.2,50.0,38.7,32.3,63,32,18,28.58,28.44,13,4,16,0.00
2014-6-12,79.0,67.3,52.5,44.2,32.5,19.0,53,29,16,28.73,28.47,24,8,27,0.00
2014-6-13,82.4,66.7,42.4,33.7,26.0,18.5,54,25,12,28.79,28.58,16,6,20,0.00
2014-6-14,80.2,69.7,59.4,52.5,40.9,27.1,50,35,25,28.64,28.32,30,15,32,0.05
2014-6-15,81.9,70.6,60.4,57.9,46.0,35.4,81,45,22,28.61,28.23,27,9,28,0.08
2014-6-16,87.6,69.2,56.3,62.8,52.8,42.1,90,58,30,28.64,28.35,37,11,45,2.74
2014-6-17,86.7,75.5,61.3,68.9,57.8,46.5,92,58,32,28.58,28.44,27,11,34,0.33
2014-6-18,89.8,78.6,67.6,67.6,60.0,51.4,77,54,36,28.52,28.44,23,10,23,0.00
2014-6-19,86.0,75.2,68.7,68.1,63.0,54.3,83,67,39,28.67,28.50,26,7,27,0.62
2014-6-20,94.1,75.1,63.0,65.5,54.2,42.4,88,55,18,28.70,28.55,18,3,19,0.00
2014-6-21,95.9,77.9,64.8,58.4,51.1,44.0,74,44,19,28.67,28.55,18,3,20,0.00
2014-6-22,81.7,70.6,64.6,64.9,56.7,49.7,86,63,39,28.64,28.50,11,3,20,0.79
2014-6-23,87.1,74.9,61.9,66.6,51.3,43.2,83,48,25,28.64,28.52,11,3,13,0.00
2014-6-24,88.5,73.5,58.8,56.0,46.7,37.5,81,44,20,28.70,28.64,14,4,15,0.00
2014-6-25,72.0,67.7,62.2,51.8,49.6,46.8,67,53,41,28.70,28.67,4,2,7,0.00
2014-6-26,87.3,74.3,65.1,61.4,54.3,47.3,82,53,30,28.70,28.55,20,7,22,0.34
2014-6-27,84.0,72.9,65.5,67.0,59.0,48.2,84,64,32,28.58,28.47,18,8,27,0.08
2014-6-28,87.3,74.8,62.2,67.5,56.8,40.9,79,56,33,28.52,28.41,28,10,29,0.29
2014-6-29,88.5,72.0,60.6,67.3,55.6,49.4,82,59,31,28.61,28.44,20,6,20,0.33
2014-6-30,79.5,68.1,63.3,68.8,57.6,48.8,87,71,40,28.52,28.32,16,5,22,2.12
2014-7-1,78.4,66.1,56.7,50.0,44.1,38.2,71,47,29,28.61,28.41,27,11,29,0.00
2014-7-2,79.9,62.4,51.6,45.2,38.8,32.4,68,45,22,28.82,28.61,15,4,15,0.00
2014-7-3,86.7,67.0,48.6,50.9,39.2,33.5,72,42,19,28.91,28.82,7,2,10,0.00
2014-7-4,83.1,70.7,56.3,49.3,44.4,39.6,64,41,24,28.97,28.82,16,7,20,0.00
2014-7-5,84.2,71.9,62.6,64.1,55.0,47.8,85,58,33,28.88,28.61,26,8,26,0.54
2014-7-6,94.8,77.6,67.1,71.6,61.2,45.2,90,63,28,28.61,28.47,13,5,16,0.00
2014-7-7,90.0,76.5,61.3,63.6,52.7,48.1,72,46,27,28.58,28.44,15,4,15,0.00
2014-7-8,83.5,71.0,59.9,56.3,45.0,37.7,73,43,22,28.67,28.47,25,8,25,0.00
2014-7-9,87.4,70.5,52.0,51.4,43.5,38.6,69,42,21,28.76,28.67,11,3,13,0.00
2014-7-10,87.1,73.2,57.6,55.9,47.0,42.6,71,43,22,28.79,28.67,20,6,24,0.00
2014-7-11,84.6,71.6,65.3,61.6,52.8,46.1,73,53,33,28.76,28.64,22,6,24,0.00
2014-7-12,82.6,71.0,65.5,69.6,60.9,52.6,86,71,44,28.79,28.67,8,2,13,0.74
2014-7-13,90.0,74.9,60.1,63.8,51.0,40.1,82,49,21,28.73,28.64,15,4,15,0.00
2014-7-14,76.5,65.4,53.1,53.8,39.2,28.8,74,42,22,28.79,28.64,18,5,20,0.00
2014-7-15,80.2,64.1,50.4,45.6,37.3,30.5,72,41,21,28.82,28.73,11,4,14,0.00
2014-7-16,86.7,67.5,47.8,50.4,38.4,32.6,68,39,18,28.79,28.73,7,2,8,0.00
2014-7-17,87.1,68.5,46.9,53.7,39.5,34.9,67,40,19,28.79,28.73,9,2,11,0.00
2014-7-18,83.7,68.3,52.3,54.2,44.4,39.4,73,46,24,28.76,28.67,15,4,17,0.00
2014-7-19,84.4,71.8,58.1,54.2,48.9,44.9,73,48,28,28.70,28.61,14,5,18,0.00
2014-7-20,89.1,75.7,62.1,57.4,52.4,48.2,75,47,28,28.64,28.55,19,7,21,0.00
2014-7-21,92.7,80.4,68.4,67.4,59.6,54.4,75,51,32,28.61,28.55,14,6,18,0.00
2014-7-22,93.9,81.0,64.8,69.4,55.1,41.6,76,45,25,28.85,28.55,12,4,17,0.00
2014-7-23,92.3,73.9,58.1,51.2,44.2,38.9,63,38,19,28.94,28.85,9,2,10,0.00
2014-7-24,82.2,65.1,55.2,55.6,47.1,40.5,73,54,25,28.88,28.55,25,4,31,0.21
2014-7-25,87.6,74.1,63.3,60.3,52.1,44.8,83,49,31,28.61,28.47,25,8,30,0.29
2014-7-26,95.0,77.3,66.9,66.8,56.0,46.4,67,50,27,28.64,28.50,10,2,12,0.00
2014-7-27,78.3,70.8,66.9,49.2,44.7,39.4,53,40,30,28.85,28.61,20,6,20,0.00
2014-7-28,71.2,71.2,71.2,39.9,39.9,39.9,32,32,32,28.91,28.82,8,2,10,0.00
2014-7-29,71.2,71.2,71.2,39.9,39.9,39.9,32,32,32,28.88,28.79,8,3,10,0.00
2014-7-30,71.2,71.2,71.2,39.9,39.9,39.9,32,32,32,28.85,28.76,8,2,9,0.00
2014-7-31,71.2,71.2,71.2,39.9,39.9,39.9,32,32,32,28.82,28.73,9,2,10,0.00
2014-8-1,71.2,71.2,71.2,39.9,39.9,39.9,32,32,32,28.82,28.76,6,1,6,0.00
2014-8-2,71.2,71.2,71.2,39.9,39.9,39.9,32,32,32,28.85,28.76,8,2,8,0.00
2014-8-3,71.2,71.2,71.2,39.9,39.9,39.9,32,32,32,28.82,28.73,7,2,10,0.00
2014-8-4,71.2,71.2,71.2,39.9,39.9,39.9,32,32,32,28.79,28.73,3,0,3,0.00
2014-8-5,71.2,71.2,71.2,39.9,39.9,39.9,32,32,32,28.82,28.73,7,1,8,0.00
2014-8-11,70.2,63.2,62.1,38.1,37.6,36.0,41,39,29,28.79,28.76,6,4,7,0.00
2014-8-12,85.8,68.3,52.5,50.1,40.0,35.6,66,40,20,28.82,28.73,13,3,13,0.00
2014-8-13,91.0,69.8,52.5,54.9,41.5,37.8,58,40,18,28.85,28.76,10,2,10,0.00
2014-8-14,90.0,70.2,52.5,55.4,45.7,40.7,64,45,21,28.82,28.67,8,2,8,0.00
2014-8-15,74.1,68.2,65.5,61.5,56.2,52.3,73,66,55,28.73,28.58,13,4,17,1.12
2014-8-16,93.9,74.6,64.4,67.2,56.0,48.4,73,56,28,28.64,28.55,6,2,9,0.00
2014-8-17,93.2,78.5,61.3,66.9,54.8,50.7,70,47,27,28.70,28.58,11,3,13,0.00
2014-8-18,95.0,78.4,65.3,66.2,55.3,47.4,70,50,22,28.61,28.44,10,3,11,0.00
2014-8-19,92.3,75.1,61.5,61.9,50.5,42.3,68,46,20,28.55,28.47,9,3,10,0.00
2014-8-20,76.8,69.6,62.1,63.5,57.6,49.8,72,66,52,28.58,28.50,13,3,13,0.29
2014-8-21,90.9,79.6,71.2,66.0,60.6,53.7,75,55,31,28.58,28.44,15,5,18,0.04
2014-8-22,90.5,79.0,73.2,75.4,64.4,55.5,79,62,38,28.67,28.55,9,2,12,0.00
2014-8-23,86.9,79.3,75.0,79.0,66.1,56.7,98,67,38,28.67,28.55,19,6,21,0.54
2014-8-24,92.5,82.3,70.7,79.8,63.6,52.5,98,60,28,28.67,28.52,14,5,19,0.29
2014-8-25,84.6,74.7,66.6,73.1,55.0,44.6,97,54,27,28.79,28.58,13,3,13,0.00
2014-8-26,79.2,69.2,63.3,54.5,48.3,42.5,68,49,30,28.88,28.76,8,2,13,0.00
2014-8-27,81.0,70.0,62.6,62.4,53.9,49.0,75,58,35,28.88,28.76,10,3,11,0.00
2014-8-28,78.3,73.4,70.7,72.3,67.2,59.6,98,82,55,28.79,28.55,18,6,30,0.83
2014-8-29,82.4,74.7,68.9,64.1,61.0,54.1,70,63,43,28.58,28.47,14,5,19,0.17
2014-8-30,86.5,70.4,60.6,58.7,54.0,43.8,70,59,29,28.61,28.50,10,4,10,0.00
2014-8-31,90.1,69.7,60.1,60.7,53.5,48.7,70,59,29,28.58,28.35,24,6,24,1.41
2014-9-1,83.3,70.5,61.7,58.3,51.4,43.4,69,54,27,28.58,28.38,13,4,15,0.00
2014-9-2,82.2,70.0,59.9,51.7,46.7,40.5,66,47,24,28.67,28.58,15,3,20,0.13
2014-9-3,86.9,72.0,60.1,62.4,51.8,46.2,68,51,31,28.64,28.44,20,7,24,0.00
2014-9-4,90.9,79.6,73.6,63.7,59.3,53.5,69,53,30,28.64,28.38,14,6,20,0.00
2014-9-5,74.5,67.4,52.7,63.7,50.3,35.9,69,56,35,28.94,28.61,10,3,13,0.53
2014-9-6,81.1,64.2,52.5,43.5,40.1,33.2,71,47,20,28.97,28.88,10,3,10,0.00
2014-9-7,78.4,64.7,54.7,46.9,39.5,32.6,65,44,20,28.91,28.73,14,4,17,0.00
2014-9-8,74.8,63.2,57.6,64.9,49.0,44.8,87,61,35,28.73,28.52,23,6,28,0.37
2014-9-9,78.8,70.8,68.9,75.5,65.9,51.9,98,86,49,28.55,28.38,13,4,18,0.17
2014-9-10,70.9,70.9,70.9,70.3,70.3,70.3,98,98,98,28.79,28.35,13,4,16,0.17
2014-9-11,70.9,63.1,47.7,70.3,51.4,28.5,98,70,34,29.03,28.79,15,3,15,0.00
2014-9-12,60.1,49.1,37.9,40.5,34.0,24.5,75,58,34,29.12,29.03,8,1,9,0.41
2014-9-13,66.4,49.8,35.6,37.5,27.4,23.1,68,46,23,29.06,28.88,15,3,19,0.00
2014-9-14,75.7,59.0,44.4,42.8,35.3,31.5,70,44,22,28.91,28.79,10,3,12,0.00
2014-9-15,67.8,56.3,40.8,45.3,37.0,24.3,65,50,27,28.94,28.76,15,3,15,0.00
2014-9-16,73.2,55.6,39.7,41.3,30.8,26.3,64,43,22,28.94,28.70,10,3,13,0.00
2014-9-17,82.6,63.9,52.7,43.6,40.1,34.4,66,46,20,28.70,28.61,8,2,10,0.00
2014-9-18,76.3,58.0,54.0,55.1,46.7,41.5,94,66,38,28.76,28.67,12,5,16,0.00
2014-9-19,86.0,68.5,55.8,68.8,62.3,55.1,98,83,51,28.70,28.47,19,9,24,0.00
2014-9-20,85.6,72.2,58.8,70.8,60.6,47.9,98,72,38,28.70,28.50,18,6,24,0.62
2014-9-21,50.7,48.9,46.9,47.7,46.7,45.2,96,92,87,28.94,28.91,2,0,3,0.00
2014-9-22,79.5,58.7,38.8,57.7,47.5,38.3,98,72,34,29.00,28.85,8,2,10,0.00
2014-9-23,70.3,58.4,46.0,60.9,53.1,45.0,98,84,53,28.91,28.79,16,5,18,0.17
2014-9-24,76.5,64.5,56.3,61.6,58.2,55.4,98,82,57,28.85,28.79,17,8,20,0.12
2014-9-25,86.2,69.1,57.6,63.1,59.1,56.1,95,74,42,28.88,28.82,9,4,13,0.00
2014-9-26,87.1,68.6,53.8,62.6,58.0,53.2,98,73,38,28.85,28.76,14,5,16,0.00
2014-9-27,86.2,68.9,57.9,66.7,60.4,56.2,98,78,41,28.85,28.76,14,6,16,0.08
2014-9-28,87.8,75.2,58.1,64.8,54.5,47.9,88,52,34,28.85,28.73,10,3,12,0.00
2014-9-29,77.2,65.8,55.2,63.9,60.1,53.2,97,83,59,28.76,28.70,12,4,15,0.00
2014-9-30,73.0,58.4,51.1,60.1,55.6,50.5,98,91,60,28.73,28.50,17,8,22,0.75
2014-10-1,82.2,64.8,57.0,65.0,59.5,56.5,98,86,47,28.52,28.44,15,6,18,0.29
2014-10-2,63.3,57.0,46.2,62.8,56.3,45.7,98,97,89,28.52,28.47,9,3,12,0.08
2014-10-3,50.4,43.9,36.3,49.8,31.5,19.5,98,64,44,28.70,28.50,26,12,31,0.00
2014-10-4,55.6,40.6,30.7,31.6,26.5,19.8,80,59,37,28.64,28.47,20,8,22,0.00
2014-10-5,65.7,49.7,36.9,48.9,37.2,31.6,98,65,38,28.47,28.35,22,6,26,0.00
2014-10-6,66.7,52.5,37.9,48.6,40.2,35.1,98,68,36,28.41,28.32,19,8,28,0.00
2014-10-7,68.4,56.0,43.7,44.7,40.4,32.7,86,59,36,28.67,28.32,25,8,29,0.00
2014-10-8,73.4,53.9,35.8,44.5,36.9,30.4,98,59,23,28.79,28.64,15,4,20,0.00
2014-10-9,61.0,50.2,38.5,48.2,38.1,28.1,97,67,38,28.91,28.73,12,4,13,0.04
2014-10-10,60.4,44.4,30.6,38.8,33.1,28.4,97,68,41,28.97,28.85,10,2,12,0.00
2014-10-11,65.1,45.1,26.2,43.8,32.6,24.8,98,67,34,28.94,28.70,12,3,13,0.00
2014-10-12,67.1,50.5,37.8,51.2,43.0,34.5,98,78,46,28.70,28.44,17,7,20,0.00
2014-10-13,54.3,51.6,49.5,53.8,51.0,48.9,98,98,98,28.50,28.41,12,4,15,0.50
2014-10-14,68.2,54.0,45.3,48.9,41.9,32.0,98,68,34,28.67,28.41,15,8,23,0.00
2014-10-15,73.6,51.1,34.2,43.5,36.9,31.8,97,63,30,28.73,28.55,9,2,12,0.00
2014-10-16,77.5,56.3,36.3,47.6,39.2,31.7,92,57,34,28.58,28.38,18,6,18,0.00
2014-10-17,61.9,53.1,45.3,45.1,40.7,37.7,78,63,48,28.82,28.44,25,11,27,0.00
2014-10-18,64.2,47.7,36.1,42.1,38.5,32.3,98,73,43,28.91,28.82,10,3,12,0.00
2014-10-19,72.5,51.6,34.9,47.3,42.1,34.0,98,75,40,28.82,28.58,21,6,22,0.00
2014-10-20,73.6,55.2,38.1,45.4,39.8,33.9,94,60,33,28.76,28.61,15,4,17,0.00
2014-10-21,75.0,52.6,34.9,47.3,40.4,32.2,98,68,34,28.82,28.76,15,6,15,0.00
2014-10-22,70.3,52.9,44.4,54.1,42.1,39.7,98,69,44,28.82,28.73,27,15,30,0.16
2014-10-23,75.0,58.0,45.9,59.0,50.2,37.2,98,79,33,28.76,28.67,20,5,20,0.05
2014-10-24,77.7,58.5,45.3,61.2,51.0,41.3,98,79,43,28.70,28.55,13,6,16,0.00
2014-10-25,72.9,56.9,41.7,46.9,39.2,29.8,90,56,30,28.82,28.67,12,3,12,0.00
2014-10-26,70.3,55.1,39.2,48.8,38.4,30.7,78,55,35,28.73,28.26,29,11,30,0.00
2014-10-27,74.1,55.0,43.5,54.3,46.6,41.1,98,76,44,28.55,28.23,25,5,28,0.00
2014-10-28,53.1,45.4,38.7,40.7,32.4,29.3,83,61,48,28.79,28.55,31,15,31,0.00
2014-10-29,58.8,44.5,35.1,35.7,30.5,23.2,84,59,39,28.88,28.76,16,5,21,0.00
2014-10-30,62.2,47.4,37.0,40.5,36.2,24.5,91,67,42,29.00,28.67,16,7,19,0.00
2014-10-31,44.6,31.8,20.5,24.0,16.9,8.9,73,55,38,29.20,29.00,15,5,23,0.00
2014-11-1,49.5,32.5,18.1,25.1,19.0,10.4,85,60,37,29.12,28.82,27,11,27,0.00
2014-11-2,63.0,47.8,33.8,39.6,30.6,20.8,75,52,38,28.82,28.58,32,16,34,0.00
2014-11-3,58.8,51.4,43.3,52.0,45.3,38.7,97,80,67,28.64,28.50,20,10,21,0.00
2014-11-4,61.7,45.7,34.5,39.4,33.8,27.5,94,67,36,28.76,28.64,20,9,27,0.00
2014-11-5,60.8,46.9,36.1,43.2,35.5,30.2,88,66,44,28.73,28.55,31,10,31,0.00
2014-11-6,50.5,38.0,25.0,34.4,27.3,19.0,92,67,46,29.03,28.70,23,8,26,0.00
2014-11-7,58.5,44.2,26.1,44.6,31.8,24.3,95,65,38,28.91,28.44,32,12,37,0.00
2014-11-8,47.8,40.7,35.1,37.0,25.4,20.8,74,55,42,28.82,28.58,26,11,28,0.00
2014-11-9,53.1,42.8,36.9,34.4,30.3,25.1,86,62,46,28.58,28.38,13,7,16,0.00
2014-11-10,57.6,37.5,21.9,42.5,31.4,17.2,90,79,56,28.58,28.11,23,11,26,0.00
2014-11-11,26.4,21.5,16.2,18.9,13.0,7.3,88,70,57,29.00,28.58,20,12,24,0.00
2014-11-12,25.7,18.9,10.4,15.7,9.3,1.6,80,66,52,29.09,29.00,23,13,26,0.00
2014-11-13,25.7,19.0,9.5,15.9,10.2,2.9,84,69,54,29.12,29.06,20,9,21,0.00
2014-11-14,32.9,16.5,1.4,11.6,3.4,-4.9,74,58,31,29.09,28.94,10,3,11,0.00
2014-11-15,28.4,21.7,12.7,22.2,14.3,3.0,94,74,56,28.97,28.76,11,6,13,0.00
2014-11-16,21.6,12.8,0.1,20.2,5.3,-4.8,95,72,53,28.79,28.61,19,10,21,0.00
2014-11-17,12.7,8.7,1.9,5.6,1.8,-4.7,73,73,73,28.82,28.67,27,14,28,0.00
2014-11-18,26.6,15.7,3.7,15.7,6.6,-3.0,82,68,48,28.79,28.47,18,8,18,0.00
2014-11-19,27.1,21.5,14.2,19.5,12.0,5.1,87,66,57,28.76,28.44,24,12,27,0.00
2014-11-20,25.2,12.7,-0.4,11.3,2.3,-10.3,71,63,53,28.94,28.76,13,5,17,0.00
2014-11-21,33.8,23.6,2.5,33.3,15.9,-7.6,98,72,60,28.94,28.64,24,12,27,0.00
2014-11-22,52.9,39.7,33.6,52.3,38.9,33.1,98,97,85,28.64,28.26,20,9,23,0.00
2014-11-23,52.9,45.0,30.2,52.0,42.3,24.5,98,90,76,28.29,28.11,23,10,27,0.04
2014-11-24,30.2,23.1,17.4,24.5,14.5,10.4,80,69,61,28.67,28.14,30,16,35,0.00
2014-11-25,39.6,23.1,9.5,20.4,10.5,1.4,75,60,33,28.76,28.58,17,8,20,0.00
2014-11-26,30.0,23.9,10.9,27.0,20.6,4.9,98,87,75,29.09,28.55,17,9,20,0.00
2014-11-27,17.2,5.3,-6.3,6.4,-5.3,-11.9,76,63,47,29.17,28.82,20,7,24,0.00
2014-11-28,36.5,23.0,10.4,26.8,16.4,-5.8,97,77,47,28.82,28.29,23,9,27,0.00
2014-11-29,56.3,35.7,20.7,39.5,29.6,19.2,98,81,51,28.38,28.17,15,5,15,0.00
2014-11-30,25.7,14.9,9.1,24.0,4.0,-4.1,93,62,50,29.20,28.38,18,10,20,0.00
2014-12-1,16.5,8.9,4.5,0.1,-7.3,-14.5,54,47,38,29.38,29.06,18,6,22,0.00
2014-12-2,38.7,21.3,9.7,15.3,3.8,-9.8,62,47,37,29.06,28.64,25,11,26,0.00
2014-12-3,36.1,25.4,17.4,15.6,12.3,6.4,76,58,41,29.03,28.73,16,7,19,0.00
2014-12-4,38.3,27.7,13.6,28.9,17.4,8.9,94,66,43,28.97,28.73,24,10,26,0.00
2014-12-5,37.0,32.8,30.0,35.7,32.1,28.7,98,97,93,29.03,28.73,15,6,18,0.00
2014-12-6,42.1,30.5,25.2,30.7,25.1,20.1,98,82,50,29.23,29.03,13,5,14,0.00
2014-12-7,35.8,31.6,28.8,35.3,30.0,23.8,98,94,78,29.17,28.73,26,14,26,0.00
2014-12-8,36.5,30.2,24.6,36.0,24.3,16.1,98,79,66,29.00,28.73,16,10,19,0.00
2014-12-9,36.3,25.3,20.1,23.6,19.4,16.4,95,79,59,29.12,29.00,11,4,15,0.00
2014-12-10,28.9,26.3,20.1,26.9,24.4,18.7,98,92,86,29.03,28.91,19,8,19,0.00
2014-12-11,35.2,31.4,27.7,31.3,29.0,26.2,97,91,83,28.94,28.85,13,7,15,0.00
2014-12-12,48.6,37.7,32.7,41.7,35.6,30.6,98,92,75,28.91,28.79,15,8,16,0.00
2014-12-13,52.3,46.8,31.3,50.7,46.0,30.8,98,97,91,28.82,28.61,18,10,20,0.00
2014-12-14,54.1,51.2,48.9,53.6,50.7,48.4,98,98,98,28.61,28.47,24,10,24,0.00
2014-12-15,49.8,42.7,24.8,49.3,42.0,21.5,98,97,87,28.58,28.29,23,9,23,0.37
2014-12-16,25.9,18.9,11.3,21.9,12.4,5.2,88,75,66,29.00,28.55,24,11,24,0.00
2014-12-17,29.7,16.5,7.9,16.2,9.2,1.9,88,73,55,29.00,28.91,8,3,9,0.00
2014-12-18,29.5,23.3,14.4,23.4,18.3,11.5,91,81,66,28.97,28.88,8,4,9,0.00
2014-12-19,32.5,29.8,26.4,30.4,28.4,23.3,98,95,88,28.91,28.82,14,8,14,0.00
2014-12-20,32.7,30.3,27.7,32.0,29.8,27.2,98,98,96,28.82,28.70,18,8,19,0.00
2014-12-21,39.0,36.4,32.2,38.5,35.9,31.7,98,98,98,28.70,28.38,26,14,26,0.00
2014-12-22,39.4,37.4,32.5,38.9,36.9,32.0,98,98,98,28.38,28.17,21,11,23,0.21
2014-12-23,36.7,33.6,32.4,33.6,32.4,31.6,98,96,84,28.55,28.17,11,5,13,0.25
2014-12-24,34.0,31.1,26.2,32.9,29.4,25.5,98,93,78,28.55,28.38,15,9,17,0.04
2014-12-25,43.2,32.6,27.0,33.7,28.8,26.1,98,87,62,28.44,28.32,18,7,19,0.08
2014-12-26,34.2,30.4,23.2,32.2,29.2,21.4,98,95,87,28.70,28.44,10,4,17,0.00
2014-12-27,28.9,20.7,9.3,28.5,15.4,4.5,98,80,56,28.88,28.64,17,8,18,0.00
2014-12-28,30.4,16.7,3.2,14.8,9.7,-1.3,90,75,51,28.94,28.76,8,4,10,0.00
2014-12-29,18.5,11.2,-2.7,16.1,3.3,-16.0,90,71,52,29.32,28.94,12,6,15,0.00
2014-12-30,3.6,-3.6,-9.9,-10.1,-16.8,-22.7,52,52,52,29.47,29.32,14,8,15,0.00
2014-12-31,18.3,5.2,-9.6,4.9,-8.0,-22.4,56,54,52,29.32,28.79,32,14,32,0.00
2015-1-1,33.8,21.0,9.1,21.5,10.3,-3.4,90,63,54,28.85,28.67,18,10,22,0.00
2015-1-2,33.3,22.3,9.7,23.6,16.5,6.3,92,79,58,28.91,28.64,13,5,14,0.00